Details for Qantas at YPPH




Go Back


Latest METAR
Local Time

YPPH 240730Z 01014KT CAVOK 27/03 Q1002 NOSIG

24/05/2018, 15:48:42

Description
Results
Qantas Logo
Number of Pilots based at YPPH
0 Pilots Based here
Number of Qantas Flights Departed from YPPH
2 Flights Departed
Number of Qantas Flights Arrived at YPPH
1 Flights Arrived
Number of Qantas Schedules Departing from YPPH
56 Schedules
Number of Qantas Schedules Arriving at YPPH
63 Schedules
Number of Qantas Schedules Departing from YPPH availible today
35 Schedules Today
Number of Qantas Schedules Arriving at YPPH availible today
34 Schedules Today
Average Landing Rate at YPPH
-284 fpm
Qantas Average Landing Rate at YPPH
-91 fpm
Total Fuel Purchased at YPPH by Qantas
16,552.04 kgs / 36,490.63 lbs

Pilots Based at YPPH


Pilot ID
Pilot Name
Pilot Rank
No. of Flights
No. of Flying Hours
There are no pilots assigned to this hub!   Will you be the first?
Content